Zurück zum Katalog

THORAD AGENA D DEB

AktivSSO
NORAD 5696·DEBRIS·🇺🇸 United States

Gestartet Apr 8, 1970 von Vandenberg Space Force Base

Loading…

Nächste Überflüge (nächste 24 Stunden)

TLE

AktuellSource: Space-Track

Epoche: Sep 14, 2026, 12:17 UTC

1 05696U 70025MB  26257.51245466  .00000264  00000-0  43229-3 0  9990
2 05696  99.5027 354.6549 0053461 304.1586 124.4684 13.56432771778552

Verfolge THORAD AGENA D DEB in Echtzeit mit AllMySat

Download on the App Store